User: anonymous   Login
Location: Unspecified
(0.0000°N, 0.0000°E)
Time: 13:01:56
(UTC+00:00)
Language:

USA 237 - Orbit

View from above orbital plane
View from above orbital plane
View from above satellite
View from above satellite

Ground track
Ground track

The orbit data is extracted from the following two-line orbital elements,

1 38528U 12034A   20324.87510754 0.00000000  00000-0  00000-0 0    07
2 38528   2.6580  66.9313 0039610   1.4570 358.5430  1.00270000    01
Epoch (UTC): 19 November 2020 21:00:09
Eccentricity: 0.0039610
inclination: 2.6580°
perigee height: 35620 km
apogee height: 35954 km
right ascension of ascending node: 66.9313°
argument of perigee: 1.4570°
revolutions per day: 1.00270000
mean anomaly at epoch: 358.5430°
orbit number at epoch: 0

The dashed part of the orbit path shows where the satellite is in the earth's shadow,  

DLR